Weather History for San Carlos, CA

Change the Weather History Date:

Thursday, November 21, 2013

  Actual Average Record
Temperature  
Mean Temperature 56 °F -  
Max Temperature 62 °F 61 °F 73 °F (1962)
Min Temperature 50 °F 42 °F 30 °F (1979)
Degree Days  
Heating Degree Days 9    
Growing Degree Days 6 (Base 50)    
Moisture  
Dew Point 43 °F    
Average Humidity 70    
Maximum Humidity 94    
Minimum Humidity 32    
Precipitation  
Precipitation 0.00 in - - ()
Sea Level Pressure  
Sea Level Pressure 29.95 in    
Wind  
Wind Speed 4 mph (NW)    
Max Wind Speed 22 mph    
Max Gust Speed 26 mph    
Visibility 10 miles    
Events Rain    
Averages and records for this station are not official NWS values.
T = Trace of Precipitation, MM = Missing Value Source: NWS Daily Summary

Daily Weather History Graph

Daily Weather History Graph

Search for Another Location

Airport:

Trip Planner

Search our weather history database for the weather conditions in past years. The results will help you decide how hot, cold, wet, or windy it might be!

Date:

Astronomy

Nov. 21, 2013 Rise Set
Actual Time 6:55 AM PST 4:54 PM PST
Civil Twilight 6:27 AM PST 5:22 PM PST
Nautical Twilight 5:55 AM PST 5:54 PM PST
Astronomical Twilight 5:23 AM PST 6:25 PM PST
Moon 8:35 PM PST (11/21) 10:05 AM PST (11/21)
Length of Visible Light 10h 55m
Length of Day
9h 59m
Waning Gibbous, 84% of the Moon is Illuminated
Nov 21
Waning Gibbous
Nov 25
Last Quarter
Dec 2
New
Dec 9
First Quarter
Dec 17
Full

Hourly Weather History & Observations

Time (PST) Temp. Dew Point Humidity Pressure Visibility Wind Dir Wind Speed Gust Speed Precip Events Conditions
12:15 AM 53.6 °F 48.2 °F 82% 29.93 in 10.0 mi WNW 3.5 mph - N/A   Overcast
12:35 AM 51.8 °F 48.2 °F 88% 29.92 in 10.0 mi West 3.5 mph - N/A   Overcast
12:55 AM 51.8 °F 48.2 °F 88% 29.92 in 10.0 mi West 4.6 mph - N/A   Overcast
1:15 AM 51.8 °F 48.2 °F 88% 29.92 in 10.0 mi West 4.6 mph - N/A   Overcast
1:35 AM 51.8 °F 48.2 °F 88% 29.92 in 10.0 mi West 4.6 mph - N/A   Overcast
1:55 AM 51.8 °F 48.2 °F 88% 29.93 in 10.0 mi West 5.8 mph - N/A   Overcast
2:15 AM 51.8 °F 48.2 °F 88% 29.93 in 10.0 mi West 4.6 mph - N/A   Overcast
2:35 AM 53.6 °F 48.2 °F 82% 29.93 in 10.0 mi WNW 3.5 mph - N/A   Overcast
2:55 AM 53.6 °F 48.2 °F 82% 29.93 in 10.0 mi Calm Calm - N/A   Overcast
3:15 AM 53.6 °F 48.2 °F 82% 29.93 in 10.0 mi Calm Calm - N/A   Overcast
3:35 AM 53.6 °F 48.2 °F 82% 29.93 in 10.0 mi NW 3.5 mph - N/A   Overcast
3:55 AM 53.6 °F 48.2 °F 82% 29.93 in 10.0 mi Calm Calm - N/A   Overcast
4:15 AM 53.6 °F 48.2 °F 82% 29.93 in 10.0 mi Calm Calm - N/A   Overcast
4:35 AM 53.6 °F 48.2 °F 82% 29.93 in 10.0 mi West 3.5 mph - N/A   Overcast
4:55 AM 53.6 °F 48.2 °F 82% 29.93 in 10.0 mi Calm Calm - N/A   Overcast
5:15 AM 53.6 °F 48.2 °F 82% 29.94 in 10.0 mi Calm Calm - N/A   Overcast
5:35 AM 53.6 °F 48.2 °F 82% 29.94 in 10.0 mi Calm Calm - N/A   Overcast
5:55 AM 53.6 °F 48.2 °F 82% 29.95 in 9.0 mi Calm Calm - N/A Rain Light Rain
6:15 AM 51.8 °F 48.2 °F 88% 29.95 in 10.0 mi Calm Calm - N/A   Overcast
6:35 AM 53.6 °F 48.2 °F 82% 29.95 in 10.0 mi Calm Calm - N/A   Overcast
6:55 AM 51.8 °F 48.2 °F 88% 29.96 in 7.0 mi NW 3.5 mph - N/A   Overcast
6:56 AM 51.8 °F 48.2 °F 88% 29.96 in 5.0 mi Calm Calm - N/A   Overcast
7:13 AM 51.8 °F 50.0 °F 94% 29.96 in 3.0 mi Calm Calm - N/A Rain Light Rain
7:47 AM 51.8 °F 48.2 °F 88% 29.97 in 6.0 mi Calm Calm - N/A Rain Light Rain
8:47 AM 51.8 °F 48.2 °F 88% 29.98 in 10.0 mi Calm Calm - N/A   Mostly Cloudy
9:47 AM 53.6 °F 48.2 °F 82% 29.98 in 10.0 mi SSE 6.9 mph - N/A   Mostly Cloudy
10:48 AM 53.6 °F 44.6 °F 72% 29.98 in 10.0 mi SE 5.8 mph - N/A   Mostly Cloudy
11:50 AM 55.4 °F 48.2 °F 77% 29.95 in 10.0 mi Calm Calm - N/A   Scattered Clouds
12:50 PM 57.2 °F 41.0 °F 55% 29.94 in 10.0 mi NNE 5.8 mph - N/A   Scattered Clouds
2:47 PM 62.6 °F 32.0 °F 32% 29.93 in 10.0 mi NNW 10.4 mph - N/A   Partly Cloudy
5:50 PM 59.0 °F 32.0 °F 36% 29.94 in 10.0 mi North 6.9 mph - N/A   Partly Cloudy
6:47 PM 59.0 °F 33.8 °F 39% 29.94 in 10.0 mi North 21.9 mph 26.5 mph N/A   Partly Cloudy
7:47 PM 57.2 °F 32.0 °F 38% 29.95 in 10.0 mi North 16.1 mph 21.9 mph N/A   Partly Cloudy
8:47 PM 57.2 °F 32.0 °F 38% 29.96 in 10.0 mi North 15.0 mph - N/A   Clear
9:15 PM 55.4 °F 35.6 °F 47% 29.98 in 10.0 mi ENE 3.5 mph - N/A   Clear
9:35 PM 55.4 °F 32.0 °F 41% 29.99 in 10.0 mi North 9.2 mph - N/A   Clear
9:55 PM 55.4 °F 35.6 °F 47% 30.00 in 10.0 mi North 9.2 mph - N/A   Clear
10:15 PM 51.8 °F 35.6 °F 54% 30.00 in 10.0 mi SSE 3.5 mph - N/A   Clear
10:35 PM 53.6 °F 32.0 °F 44% 30.00 in 10.0 mi SSW 4.6 mph - N/A   Clear
10:55 PM 53.6 °F 32.0 °F 44% 30.01 in 10.0 mi Calm Calm - N/A   Clear
11:15 PM 51.8 °F 32.0 °F 47% 30.01 in 10.0 mi East 3.5 mph - N/A   Clear
11:35 PM 50.0 °F 32.0 °F 50% 30.01 in 10.0 mi WSW 3.5 mph - N/A   Clear
11:55 PM 51.8 °F 28.4 °F 41% 30.01 in 10.0 mi Calm Calm - N/A   Clear